Location: G�rlitz
(51.1670°N, 15.0000°E)
Time: 20:43:54
(UTC+01:00)

Envisat - Pass Details

Date: 23 February 2026
Orbit: 761 x 763 km, 98.4° (Epoch: 11 March)

Event Time Altitude Azimuth Distance (km) Brightness Sun altitude
Rises 03:06:16 0° 13° (NNE) 3,237 6.8 -35.7°
Reaches altitude 10° 03:08:35 10° 12° (NNE) 2,307 5.9 -35.4°
Enters shadow 03:10:18 22° 9° (N) 1,641 5.0 -35.2°
